Location: Csohesd
(46.2500°N, 22.6167°E)
Time: 04:33:30
(UTC+00:00)

CZ-2C R/B - Pass Details

Date: 21 October 2021
Orbit: 784 x 871 km, 98.2° (Epoch: 30 November)

Event Time Altitude Azimuth Distance (km) Brightness Sun altitude
Rises 16:13:55 0° 19° (NNE) 3,469 5.6 -7.8°
Reaches altitude 10° 16:16:27 10° 25° (NNE) 2,522 4.9 -8.3°
Maximum altitude 16:21:48 44° 97° (E) 1,176 3.0 -9.2°
Drops below altitude 10° 16:27:02 10° 169° (S) 2,468 5.1 -10.1°
Sets 16:29:29 0° 176° (S) 3,387 5.9 -10.5°
